JASON-3

Last updated on Fri Oct 04 2024 00:02:25 GMT+0000 (Coordinated Universal Time)

1 41240U 16002A 24277.55830501 .00000016 00000+0 33320-3 0 9999 2 41240 66.0447 346.2590 0008099 265.2736 94.7355 12.80931890407382
UTC large
Height (km)
Speed (km/s)
/
Latitude / Longitude
Inclination (degrees)
Orbital Period (minutes)
Azimuth
Elevation
Range (km)
Doppler Factor

Next 0 passes for location: London (51.5072 / 0.1276)

Sorry there are no passes over London.